Vorticity
nan nan nan nan nan nan nan nan nan nan nan nan nan nan nan nan nan nan nan nan nan nan nan nan nan nan nan nan nan nan nan nan nan nan nan nan nan nan nan nan nan nan nan nan nan nan nan nan nan nan nan nan nan nan nan nan nan nan nan nan nan nan nan nan nan nan nan nan nan nan nan nan nan nan nan nan nan nan nan nan nan nan nan nan nan nan nan nan nan nan nan nan nan nan nan nan nan nan nan nan nan nan nan
nan 6 5 5 6 5 5 6 6 6 6 6 5 5 5 5 5 5 5 5 5 5 5 5 5 5 5 5 5 5 5 5 5 5 5 5 5 5 5 6 6 5 6 7 7 7 14 17 10 6 6 10 10 7 2 -0 3 6 10 9 3 1 -7 -11 -2 4 7 6 6 5 5 6 6 6 6 6 5 6 6 6 6 6 6 5 5 5 5 5 5 5 5 5 5 5 5 6 6 6 5 5 5 5 nan
nan 6 6 6 6 5 6 6 6 6 6 5 5 5 5 5 5 5 5 5 5 5 5 5 5 5 5 5 5 5 5 5 5 5 5 5 5 5 5 5 5 5 6 7 8 8 10 12 11 8 5 7 9 7 4 3 3 5 10 8 1 -1 -6 -7 -0 4 6 6 6 5 5 5 5 5 6 5 5 5 6 6 6 6 6 6 6 6 6 5 5 5 5 5 5 5 5 6 6 6 6 6 6 5 nan
nan 6 6 6 6 6 6 6 6 6 6 6 6 6 5 5 5 5 5 5 5 5 5 5 5 5 5 5 5 5 5 5 5 5 5 5 5 5 5 5 6 5 6 7 10 15 11 4 7 7 5 4 6 5 5 5 5 7 10 7 -1 -6 -7 -4 3 6 6 6 6 5 6 5 5 5 5 5 5 5 5 5 6 6 6 6 6 6 6 6 6 5 5 5 5 5 5 5 5 6 6 6 6 6 nan
nan 6 6 6 6 6 6 6 6 6 6 6 6 6 5 5 5 5 5 5 5 5 5 5 5 4 5 5 5 5 5 5 5 5 5 5 5 5 5 5 6 6 6 6 9 18 14 7 9 6 3 4 5 4 4 5 5 7 10 6 -3 -9 -7 -0 4 6 6 6 6 6 6 5 5 5 5 5 5 5 5 5 5 6 6 6 6 6 6 6 6 6 6 5 5 5 5 5 5 5 6 6 6 6 nan
nan 6 6 6 6 6 6 6 6 6 6 6 6 6 6 5 5 5 5 5 5 5 5 5 5 4 4 5 5 5 5 5 5 5 5 5 5 5 5 6 6 6 6 6 8 15 17 14 13 6 3 4 4 4 5 5 6 8 8 3 -3 -8 -7 -0 4 6 6 6 6 6 5 5 5 5 5 5 5 5 5 5 5 5 5 6 6 6 6 6 6 6 6 6 6 6 5 5 5 5 5 6 6 6 nan
nan 6 6 6 6 6 6 6 6 6 6 6 6 6 6 5 5 5 5 5 5 5 5 5 5 4 4 5 5 5 5 5 5 5 5 5 5 5 5 5 6 6 6 6 9 15 17 14 12 7 6 4 2 6 6 4 5 8 9 2 -6 -6 -3 1 4 6 6 6 6 6 6 6 5 5 5 6 5 5 5 5 5 5 5 5 5 6 6 6 6 6 6 6 6 6 6 5 5 5 5 6 6 6 nan
nan 6 6 6 6 6 6 6 6 6 5 5 6 5 5 5 5 5 5 5 5 4 4 5 5 4 4 4 5 5 5 5 5 5 5 5 5 5 5 6 6 6 6 7 8 12 16 16 11 7 7 5 -0 2 6 6 6 8 9 0 -7 -6 -1 2 5 6 6 6 6 6 5 5 5 5 6 5 5 6 5 5 5 5 5 5 5 5 5 6 6 6 6 6 6 7 6 6 6 6 6 5 6 6 nan
nan 6 6 6 6 6 5 5 5 5 5 5 5 5 5 5 5 5 5 5 4 4 4 5 4 4 4 4 5 5 5 6 6 5 5 5 5 5 6 6 6 6 7 7 7 10 16 16 10 8 6 2 -1 2 10 10 4 7 6 -3 -6 -5 -1 3 5 6 5 5 5 5 5 5 5 5 5 5 6 6 5 5 6 5 6 5 6 5 5 6 6 5 6 6 6 7 6 6 6 6 6 6 6 6 nan
nan 6 6 6 6 5 5 5 5 5 5 5 5 5 5 5 5 5 5 5 4 4 5 5 4 4 4 4 5 5 6 6 6 6 6 6 5 6 6 6 7 7 7 7 7 9 16 17 8 8 6 0 1 4 11 10 4 6 4 -6 -9 -4 3 5 5 5 5 5 5 5 5 5 5 5 5 5 5 5 5 6 5 6 6 6 6 6 5 5 5 5 6 6 6 6 6 7 6 6 6 6 6 6 nan
nan 6 6 6 6 6 5 5 5 5 5 5 5 5 6 5 5 5 5 5 5 5 5 4 4 4 4 4 5 5 6 6 6 6 6 5 6 6 6 6 7 7 7 7 7 9 13 14 8 9 6 1 3 7 11 8 4 8 2 -9 -10 -3 4 6 6 5 5 5 5 5 5 5 5 5 5 5 5 5 5 5 5 6 6 6 6 6 6 6 5 5 5 5 6 6 6 6 7 6 6 6 6 6 nan
nan 6 6 5 6 6 5 5 5 5 6 6 6 6 6 6 5 5 5 5 5 5 4 4 4 4 4 5 5 5 6 7 6 6 6 6 6 6 6 6 7 8 8 8 8 9 10 9 6 8 7 4 6 9 10 7 5 8 -5 -13 -6 -1 4 6 6 5 5 5 5 5 5 5 5 5 5 5 5 5 5 5 6 6 6 6 6 6 6 6 6 6 6 6 6 6 6 6 6 7 7 6 6 6 nan
nan 6 6 5 5 6 6 5 5 5 6 6 6 6 6 6 6 6 5 5 5 5 5 4 4 4 5 5 5 5 6 6 6 6 6 6 6 6 6 6 7 8 9 9 10 10 8 5 4 6 9 8 6 7 8 7 6 3 -12 -13 -1 4 5 6 5 5 5 5 5 5 5 5 5 5 5 5 5 5 5 6 6 6 6 6 6 6 6 6 6 6 6 6 6 6 6 6 6 7 7 7 7 7 nan
nan 6 5 5 5 6 6 5 5 5 5 6 6 6 6 5 6 6 6 5 5 5 4 4 5 5 5 5 5 5 4 5 5 5 5 5 5 5 5 6 7 9 11 12 12 10 4 2 5 7 8 8 4 5 8 9 4 -5 -13 -7 1 5 5 5 5 5 5 5 5 5 5 5 5 5 5 5 5 5 5 6 6 6 6 6 6 6 6 6 6 6 6 6 7 6 6 7 7 7 7 7 7 7 nan
nan 6 5 5 6 6 5 5 5 5 5 5 6 6 5 5 5 5 5 5 5 5 5 5 5 5 5 6 6 5 3 3 4 3 3 4 4 5 5 7 8 9 14 15 9 5 2 4 9 9 6 5 6 6 8 8 1 -11 -11 -2 3 5 5 5 5 5 5 5 5 5 5 5 5 5 5 5 5 5 5 5 5 6 6 6 6 6 6 6 6 6 7 7 7 7 7 7 7 7 7 7 7 7 nan
nan 5 5 6 6 6 5 6 5 5 5 5 6 6 5 5 5 5 5 5 5 5 5 5 5 5 5 6 7 8 2 -1 1 1 1 2 3 4 6 8 10 13 15 12 4 1 2 8 11 9 4 4 7 7 8 5 -3 -13 -7 2 4 5 5 5 5 5 5 5 4 4 4 4 5 5 5 5 5 5 5 5 6 6 6 6 6 6 6 6 6 6 7 7 7 7 7 7 7 7 7 7 7 7 nan
nan 5 5 6 6 6 6 6 6 6 6 6 6 6 6 6 6 5 5 5 5 5 5 5 5 4 5 7 9 13 5 -2 -1 -2 -3 -1 2 4 6 9 13 16 13 6 2 1 4 10 11 7 3 4 8 7 7 3 -7 -11 -3 3 4 5 5 5 5 5 4 4 4 4 4 4 5 5 5 5 5 5 5 5 5 5 6 6 6 6 6 6 6 6 7 7 7 7 7 8 8 7 7 8 7 7 nan
nan 5 5 6 6 6 6 6 6 6 6 6 6 6 6 6 6 6 5 5 5 5 5 5 4 3 4 8 11 14 10 3 3 -1 -6 -5 0 4 9 12 13 13 9 3 2 3 7 9 9 7 4 5 7 6 6 -0 -9 -8 -1 4 4 4 5 5 5 5 4 4 4 4 4 5 5 5 5 5 5 5 5 5 5 5 6 6 6 6 6 6 6 7 7 7 7 7 7 8 8 8 8 8 8 8 nan
nan 4 5 5 5 6 6 6 5 5 6 6 6 5 5 5 5 5 5 4 5 5 5 5 4 3 4 7 10 12 9 7 8 6 -0 -3 -1 4 10 12 10 7 5 2 2 6 9 9 8 7 5 4 5 5 5 -1 -8 -6 0 4 4 4 4 5 4 4 4 4 4 4 5 5 5 5 5 5 5 5 5 5 5 6 6 6 6 6 6 7 7 7 7 7 7 7 7 8 8 8 8 8 8 8 nan
nan 1 2 2 3 3 4 3 3 3 3 5 4 2 1 2 3 3 3 2 2 3 4 5 5 1 3 6 8 9 8 7 8 8 6 3 3 5 8 8 5 5 2 1 5 9 10 8 8 6 5 5 5 5 4 -3 -8 -5 1 4 4 4 4 5 5 4 4 4 4 5 5 5 4 4 4 4 5 5 5 5 6 6 6 6 6 7 7 7 7 7 7 7 7 7 8 8 8 8 8 8 8 8 nan
nan 1 -0 -1 -1 -0 1 1 0 0 -0 3 4 1 -2 -3 -2 -1 1 -1 -1 -0 4 7 7 3 1 4 5 7 8 7 7 7 6 6 6 7 6 5 4 4 2 3 8 9 9 8 7 5 6 6 5 5 1 -6 -7 -2 2 4 4 4 4 5 5 4 4 4 4 5 5 4 4 4 4 4 5 5 5 5 6 6 6 6 6 7 7 7 7 7 7 8 8 8 8 8 8 8 8 8 8 8 nan
nan 5 3 2 1 0 1 1 1 1 -1 2 5 3 1 -1 -2 -1 0 -0 -3 -2 3 7 7 5 1 1 4 7 8 7 6 7 7 6 6 6 5 5 4 3 3 6 8 8 7 8 7 6 6 7 6 5 -2 -7 -2 1 3 4 4 4 4 4 5 5 5 5 5 5 5 4 4 4 4 5 5 5 5 6 6 6 6 6 6 7 7 7 7 8 8 8 8 8 8 8 8 8 8 8 8 9 nan
nan 6 6 6 5 4 4 4 4 3 1 2 6 6 4 4 3 3 3 2 -0 -1 4 8 7 5 3 2 4 6 6 5 6 6 6 6 6 5 4 4 4 4 5 6 7 7 7 7 7 6 6 6 6 4 -3 -5 -0 2 3 4 4 4 4 4 5 5 5 5 5 5 5 4 4 4 5 5 5 5 5 6 6 6 6 6 7 7 7 7 7 7 8 8 8 8 8 8 8 8 8 8 8 9 nan
nan 6 7 7 7 6 6 6 6 5 4 4 6 6 5 6 5 6 6 5 3 2 3 6 7 6 3 3 5 5 4 4 5 6 6 5 5 4 3 2 4 6 5 5 7 8 8 7 6 6 5 5 6 4 -2 -3 -0 1 3 4 4 4 4 4 5 5 5 5 5 5 5 5 4 5 5 5 5 5 5 6 6 6 6 6 7 6 7 7 7 7 7 8 8 8 8 8 8 8 8 8 8 9 nan
nan 6 7 6 6 7 6 6 6 6 6 5 6 6 6 6 6 6 7 6 5 4 3 4 6 5 4 4 5 5 5 5 5 7 6 4 4 4 3 2 5 7 5 6 8 8 7 6 6 5 5 6 7 5 -0 -2 0 2 3 4 4 4 4 4 5 5 5 5 5 5 5 5 5 5 5 5 5 5 5 6 6 6 6 6 6 6 7 7 7 7 7 8 8 8 9 9 9 9 9 8 9 9 nan
nan 6 6 6 6 7 7 6 6 6 6 6 6 6 6 6 6 6 6 6 6 5 5 4 4 5 4 4 5 5 7 7 6 6 6 6 6 6 4 5 6 6 6 8 9 8 6 5 5 5 5 6 7 5 2 -1 2 3 3 4 4 4 4 5 5 6 6 6 6 5 5 5 5 5 5 5 5 5 6 6 6 6 6 6 6 6 6 6 6 6 7 8 8 8 9 9 9 9 9 9 9 9 nan
nan 6 6 6 6 6 7 6 6 6 6 6 7 6 5 6 6 6 6 6 6 5 5 4 4 6 6 5 6 7 8 8 6 6 7 9 9 8 6 6 6 5 7 9 8 6 5 5 5 4 5 7 7 7 4 2 3 3 3 4 4 4 5 5 5 6 6 5 5 5 5 6 6 6 6 5 6 6 6 6 6 6 6 6 6 6 6 6 6 6 7 7 8 8 9 9 9 10 10 10 10 10 nan
nan 6 6 6 6 6 6 6 6 6 6 6 7 6 6 6 6 6 6 6 5 5 5 5 6 6 6 6 6 7 8 8 7 6 7 10 9 7 5 5 5 6 9 8 6 4 5 4 4 5 6 7 7 7 5 4 3 2 3 4 4 4 5 5 5 5 5 5 5 5 6 6 6 6 6 6 6 6 6 6 6 6 6 6 6 6 6 6 6 6 6 7 8 8 8 9 10 10 10 10 10 10 nan
nan 6 6 6 7 7 6 6 6 6 6 6 7 6 6 6 6 6 6 6 6 6 6 5 6 5 6 6 5 6 7 7 7 7 8 8 6 4 4 6 7 7 7 6 6 6 6 5 5 6 8 7 8 7 5 5 2 2 3 3 4 4 5 5 5 4 4 4 5 5 6 6 6 6 6 6 6 6 6 6 6 6 6 6 6 6 6 6 6 6 6 7 7 8 8 9 10 10 10 10 11 11 nan
nan 6 6 7 7 7 6 6 6 6 6 6 6 6 6 6 6 6 6 6 6 6 6 6 6 6 6 6 6 6 7 7 7 6 6 6 5 4 6 7 6 6 7 9 10 10 9 7 7 9 10 9 9 7 6 5 4 4 3 3 3 4 4 4 4 4 4 4 4 5 5 6 6 6 6 6 6 6 6 6 6 6 6 6 6 6 6 6 6 6 6 7 7 8 8 10 10 10 10 10 10 11 nan
nan 6 6 6 6 6 6 6 6 6 6 6 6 6 6 6 6 6 6 6 6 6 6 6 6 6 7 7 7 8 7 7 7 6 6 7 7 6 6 5 5 7 9 11 11 9 8 8 10 11 8 6 6 7 8 7 7 6 5 4 4 4 4 4 3 3 3 4 4 4 5 6 6 6 6 6 6 6 6 6 6 6 6 6 7 7 7 7 7 6 6 6 7 7 8 9 10 10 10 10 11 11 nan
nan 6 6 6 6 6 6 6 6 6 6 6 6 6 6 6 6 6 6 6 6 6 6 6 6 6 6 7 7 7 7 6 7 6 7 8 8 7 7 6 7 9 10 10 8 7 7 9 8 6 5 3 5 7 8 7 7 7 8 7 6 4 4 3 3 3 3 3 4 4 5 5 5 6 5 6 6 6 6 6 6 6 6 7 7 7 7 7 7 7 6 6 7 7 9 9 10 10 10 10 10 10 nan
nan 7 7 6 6 6 6 6 6 5 5 6 5 6 6 6 6 7 6 6 6 6 6 6 6 6 6 7 7 7 6 6 6 6 7 8 8 8 7 7 9 9 9 7 6 6 6 6 5 6 6 7 6 6 6 6 7 9 12 9 7 4 3 3 3 3 3 4 4 5 5 5 5 5 5 5 5 6 6 6 6 6 7 8 8 8 8 8 7 7 7 6 7 7 8 9 10 10 10 10 10 10 nan
nan 7 7 6 6 6 6 6 6 5 6 6 6 6 6 6 6 7 7 7 7 7 7 7 7 6 7 7 7 7 6 6 6 6 6 6 5 5 5 8 10 10 9 6 6 6 7 6 7 9 8 8 7 6 7 8 9 11 11 7 5 3 3 4 4 4 4 5 4 5 5 5 4 4 4 4 5 5 6 6 6 7 7 8 8 8 8 8 7 7 7 7 7 8 8 9 9 10 10 10 10 10 nan
nan 7 7 6 6 7 7 6 5 5 6 6 7 7 7 6 6 7 7 7 7 7 7 7 7 7 7 7 7 7 6 7 7 7 6 5 5 6 8 9 9 9 9 8 8 9 8 8 8 8 7 7 8 10 10 9 9 9 6 6 7 6 7 9 8 7 5 5 5 5 5 5 4 4 4 4 4 5 6 6 7 7 7 8 8 8 8 8 8 8 7 7 7 8 8 9 9 9 10 10 10 11 nan
nan 7 7 7 6 7 6 5 6 5 6 7 7 7 7 6 6 6 7 6 6 7 7 7 7 8 8 8 7 7 8 9 9 9 9 9 9 9 9 8 8 8 9 10 11 11 9 8 7 7 7 9 11 12 10 10 8 7 6 9 11 12 13 14 13 9 6 6 6 6 5 4 4 3 3 4 4 5 6 6 6 7 7 8 8 8 8 8 8 8 8 7 8 8 8 8 9 9 9 10 10 11 nan
nan 7 7 7 7 7 6 6 6 6 6 6 7 7 7 6 6 7 6 6 6 7 7 8 7 7 8 8 8 7 7 8 8 8 9 9 10 9 9 9 10 10 9 9 10 9 8 7 7 7 8 10 10 9 9 10 8 6 7 8 10 12 14 13 10 8 8 7 7 6 5 4 4 4 3 4 4 4 5 6 6 7 7 8 8 8 9 9 9 8 8 8 8 8 8 8 8 9 9 9 10 10 nan
nan 7 7 7 7 7 6 6 6 7 7 7 6 7 7 7 7 7 7 6 7 7 7 7 7 8 8 8 8 7 6 7 7 7 7 7 8 8 8 9 9 9 8 8 8 7 7 8 9 8 8 8 8 8 10 9 7 6 6 6 7 8 9 7 7 9 10 9 8 7 5 5 4 4 4 4 4 4 5 5 6 7 7 8 8 9 9 9 9 9 8 8 8 8 8 8 8 8 8 8 9 9 nan
nan 7 7 7 7 7 6 7 7 6 6 7 7 7 8 7 7 7 7 7 7 7 7 7 7 8 8 8 7 7 7 7 7 7 7 6 6 7 7 7 8 8 8 8 8 8 9 9 8 7 7 8 9 10 10 7 6 6 7 7 6 6 6 5 6 9 11 10 8 7 5 5 5 5 4 4 4 4 4 4 5 6 7 8 8 9 9 9 9 9 9 9 8 8 8 8 8 8 8 8 8 8 nan
nan 7 7 7 7 6 7 7 7 6 6 7 7 7 8 7 7 7 7 7 7 7 7 7 7 8 8 8 7 7 8 8 8 7 6 6 6 6 6 7 8 8 8 8 8 9 9 8 7 7 8 9 10 10 8 5 5 7 8 7 6 5 5 4 5 8 9 9 8 5 5 5 5 5 5 5 4 4 4 4 5 6 7 8 8 9 9 9 9 9 9 9 9 9 8 8 7 7 7 7 8 9 nan
nan 7 7 7 7 7 8 7 6 5 6 7 7 7 7 7 7 7 7 7 7 8 8 7 6 6 7 7 7 7 8 8 7 7 5 5 5 5 6 7 8 8 8 8 8 8 7 7 8 10 11 10 10 8 5 4 6 7 8 6 4 4 4 3 5 9 9 7 7 5 5 4 6 6 6 5 5 4 4 5 5 6 7 8 8 8 9 9 9 9 9 9 9 9 8 8 8 7 7 8 8 9 nan
nan 6 7 7 7 8 9 7 5 5 6 7 7 7 6 7 7 8 8 7 7 8 9 8 6 5 6 7 7 7 7 7 8 8 7 7 6 6 6 7 8 8 8 8 9 8 8 8 9 10 10 10 9 6 4 6 7 7 7 6 6 6 6 7 9 10 7 6 6 7 6 5 6 6 7 6 6 6 6 6 6 6 7 7 7 8 8 8 9 9 9 9 9 9 9 8 8 8 8 8 8 9 nan
nan 7 7 7 7 8 8 7 6 6 6 7 7 7 7 7 7 8 8 8 7 7 9 9 8 7 6 6 7 7 7 7 8 8 8 8 8 7 6 8 8 9 9 10 9 8 8 8 7 7 8 9 8 7 7 8 7 7 8 9 9 9 8 9 9 7 4 5 6 8 6 6 7 8 8 8 8 8 8 7 7 7 6 6 7 7 8 8 9 9 10 10 9 9 9 10 9 9 10 10 9 9 nan
nan 7 7 7 7 8 8 7 6 6 7 7 7 7 7 7 7 7 8 8 8 7 8 9 9 8 7 6 7 7 7 7 7 7 8 8 7 7 8 10 10 10 10 9 9 8 7 7 7 7 9 8 8 9 10 8 6 8 10 10 9 7 6 7 6 4 4 7 9 9 6 6 7 9 11 13 13 13 11 8 7 6 6 6 6 7 8 8 9 9 10 10 10 10 10 11 11 11 12 11 11 10 nan
nan 7 7 8 8 8 8 6 5 5 7 8 8 7 7 7 7 7 7 8 8 7 7 8 9 8 6 5 6 7 6 6 6 6 7 7 7 7 10 12 11 11 9 9 9 8 7 7 8 10 10 9 9 10 9 6 6 9 10 8 8 6 4 5 5 5 8 12 12 8 5 6 8 10 13 15 17 16 12 8 6 5 5 6 6 6 7 8 9 9 9 9 9 9 10 11 12 12 13 13 12 11 nan
nan 7 7 8 8 8 8 6 5 6 7 8 7 7 7 7 7 7 7 7 7 7 6 6 8 9 8 6 5 6 6 6 6 6 7 8 8 9 10 10 10 10 9 9 9 8 8 9 10 10 9 8 8 8 6 5 7 10 9 8 8 5 3 4 5 8 12 15 11 6 5 7 9 10 13 14 15 13 9 7 6 5 6 6 6 6 6 7 8 9 9 9 8 8 9 11 11 12 13 13 12 11 nan
nan 6 8 8 7 7 7 5 5 6 7 7 7 7 6 6 7 8 8 7 8 7 7 6 6 7 9 9 9 8 8 8 8 8 8 9 9 9 10 10 10 9 9 9 8 7 7 9 10 9 8 8 8 7 5 6 7 9 9 8 6 4 4 5 7 10 15 13 7 5 7 9 10 13 13 11 10 9 8 8 8 7 7 6 6 6 6 7 8 9 8 8 7 7 7 9 10 11 12 12 12 11 nan
nan 6 9 10 8 6 6 6 5 6 8 8 7 8 6 5 6 7 7 7 8 8 9 8 7 6 7 10 11 11 11 10 8 7 8 10 11 12 13 12 11 10 10 9 8 7 6 8 9 9 10 9 8 6 5 6 7 8 8 7 6 4 4 5 8 12 13 7 3 4 7 10 11 14 12 10 9 8 8 10 10 10 10 8 7 6 7 8 9 9 8 6 5 5 6 7 8 10 11 11 12 12 nan
nan 5 8 10 9 6 6 7 6 6 7 7 8 9 8 7 6 6 5 5 6 8 9 10 10 8 7 9 11 12 10 9 8 7 8 10 12 14 14 12 11 11 12 11 10 10 10 10 11 11 11 8 6 4 5 6 8 8 7 6 6 4 4 7 10 13 9 2 2 5 8 11 12 13 12 11 9 8 8 9 10 11 10 9 11 11 13 11 10 8 6 5 4 4 5 6 7 8 10 11 11 11 nan
nan 5 7 9 9 7 6 7 6 6 7 7 7 8 9 7 6 6 6 5 4 5 8 11 12 12 9 8 10 11 9 8 8 8 9 9 9 10 10 12 13 14 14 14 12 12 14 14 14 13 8 4 3 4 5 8 7 7 6 6 6 5 7 10 12 11 5 3 5 7 9 11 14 14 13 10 8 7 7 8 7 8 9 12 16 19 17 14 12 8 5 3 3 4 5 6 7 7 9 10 10 10 nan
nan 7 7 6 8 7 8 7 5 6 7 8 8 8 9 8 7 8 10 8 5 4 5 8 11 12 11 8 8 9 9 8 7 7 8 8 6 6 7 9 11 14 14 14 15 16 17 17 15 12 3 -1 1 4 7 8 8 7 6 6 6 6 9 10 9 7 5 5 6 7 9 13 16 14 9 6 5 4 6 6 6 7 10 13 15 15 12 8 5 4 2 2 3 4 5 6 7 7 8 9 9 9 nan
nan 6 6 6 7 7 9 8 7 7 6 7 8 8 10 11 9 8 11 11 9 6 3 4 7 9 11 10 9 10 10 8 7 6 5 6 8 9 10 9 10 10 10 11 17 19 20 16 12 5 -1 -1 3 7 9 8 7 6 6 6 6 7 9 8 7 6 6 6 7 8 11 16 15 10 5 3 4 5 6 5 7 9 10 10 8 7 5 2 -0 -3 -2 3 4 5 6 6 6 7 8 10 10 10 nan
nan 5 4 5 6 7 9 9 8 7 6 7 8 8 9 10 8 7 8 9 10 9 7 4 4 5 7 9 10 12 11 9 7 6 5 7 9 12 13 11 8 6 6 10 14 18 17 10 5 1 1 5 9 10 9 6 5 6 7 6 7 8 9 7 6 6 6 7 8 10 12 13 10 7 5 7 9 10 9 8 8 8 9 8 8 8 7 2 -2 -1 5 7 6 6 6 6 6 7 8 10 10 11 nan
nan 7 3 1 4 7 8 9 9 8 7 7 8 8 9 8 7 7 7 7 7 8 9 8 6 4 5 6 8 10 11 9 8 7 6 6 7 9 11 10 7 6 8 9 9 12 9 3 1 4 8 13 13 11 7 5 5 6 6 6 7 8 7 7 7 7 7 8 9 9 9 9 7 5 6 11 14 14 11 9 7 7 6 7 8 8 4 -1 -0 8 15 13 9 5 4 2 4 6 8 10 11 11 nan
nan 7 3 2 3 5 9 9 6 7 7 7 7 8 9 9 7 7 8 8 7 6 6 8 8 5 5 6 6 6 8 10 10 9 8 6 5 5 6 7 9 12 12 9 7 5 2 2 6 11 16 16 14 10 7 7 7 6 4 4 5 6 6 7 8 8 9 9 8 7 8 7 6 5 9 15 14 11 6 6 8 9 8 9 8 6 3 3 11 19 19 14 8 5 1 0 4 6 7 10 10 10 nan
nan 6 5 6 5 4 7 8 6 6 7 6 7 8 9 10 10 9 8 9 9 7 5 7 8 5 3 5 7 6 6 9 9 8 7 6 5 4 3 4 7 9 9 9 7 5 1 4 13 18 15 10 7 6 6 7 6 6 5 5 5 5 7 8 8 8 9 8 7 8 8 6 6 8 13 13 10 7 7 11 12 12 12 10 10 10 9 11 14 15 12 10 9 6 -2 0 4 6 8 10 11 10 nan
nan 9 7 7 7 4 3 5 7 6 6 7 7 8 8 9 10 10 9 9 9 8 6 6 9 8 4 3 6 7 6 7 8 8 7 7 7 6 5 3 2 1 1 3 4 5 4 6 12 13 8 5 4 6 7 7 7 7 7 6 6 7 8 7 7 7 6 6 7 7 7 6 7 9 11 9 9 10 12 12 11 11 10 9 10 10 9 8 7 7 8 6 4 -3 -8 -2 3 6 9 10 10 9 nan
nan 10 10 8 7 5 1 3 6 6 6 8 7 7 8 8 8 9 10 9 8 9 8 5 7 10 9 6 6 7 6 5 6 8 9 9 11 11 9 6 3 2 -0 -1 0 1 4 8 10 6 4 6 9 8 8 8 9 10 8 6 6 6 6 6 7 7 7 5 5 6 6 7 7 8 8 9 12 12 12 11 11 10 9 11 12 12 8 5 5 5 -0 -6 -11 -15 -11 -2 4 8 10 10 9 8 nan
nan 8 9 8 8 6 3 3 4 5 7 8 6 7 8 8 8 7 9 10 9 9 8 5 5 7 10 9 6 5 7 6 6 7 9 11 14 15 13 9 8 6 4 1 1 1 3 5 6 6 6 6 8 10 9 7 8 8 8 6 6 5 7 8 8 9 9 7 6 6 7 7 7 8 8 10 11 11 12 10 10 10 12 14 13 11 6 7 8 6 -1 -5 -7 -9 -5 2 5 7 9 9 8 7 nan
nan 5 8 10 9 6 5 5 5 5 7 7 6 7 8 8 8 7 8 10 11 10 8 6 5 5 9 10 6 4 7 9 8 7 7 9 12 13 11 9 10 10 9 6 6 6 5 3 1 3 5 6 5 6 6 8 7 7 6 5 6 8 9 9 9 11 10 8 8 9 8 7 6 7 7 8 8 10 10 9 10 10 12 10 9 8 9 12 12 12 12 11 5 -2 -2 4 5 6 8 8 7 7 nan
nan nan nan nan nan nan nan nan nan nan nan nan nan nan nan nan nan nan nan nan nan nan nan nan nan nan nan nan nan nan nan nan nan nan nan nan nan nan nan nan nan nan nan nan nan nan nan nan nan nan nan nan nan nan nan nan nan nan nan nan nan nan nan nan nan nan nan nan nan nan nan nan nan nan nan nan nan nan nan nan nan nan nan nan nan nan nan nan nan nan nan nan nan nan nan nan nan nan nan nan nan nan nan
CAPE
17 17 17 19 21 21 22 25 29 29 30 30 32 32 32 31 31 28 25 24 24 23 23 24 22 22 20 17 15 15 15 18 21 21 23 27 27 27 28 24 24 18 12 7 0 0 nan nan nan nan nan nan nan nan nan nan nan nan nan nan nan nan nan 37 60 60 59 61 59 59 58 51 48 48 56 58 58 59 65 69 69 76 81 86 91 91 93 96 93 93 83 66 61 61 57 58 58 61 63 61 61 57 55
15 16 16 17 17 17 20 24 26 26 27 28 28 28 29 28 28 24 22 19 19 20 20 19 19 19 15 14 12 12 12 15 19 19 22 24 24 28 26 24 24 18 11 6 nan nan nan nan nan nan nan nan nan nan nan nan nan nan nan nan nan nan nan 52 63 63 69 73 68 68 61 54 51 51 51 51 51 52 58 64 64 68 73 79 88 88 94 96 97 97 94 85 70 70 58 55 55 58 60 63 63 62 56
13 15 17 17 17 17 18 22 22 22 25 24 25 25 24 22 22 20 19 18 18 17 18 16 16 16 14 11 10 10 11 12 19 19 20 23 23 26 27 23 23 16 9 4 nan nan nan nan nan nan nan nan nan nan nan nan nan nan nan nan nan nan nan 57 71 71 83 88 82 82 75 64 57 57 52 48 48 48 51 56 56 62 68 73 81 81 86 94 97 97 99 97 89 89 71 57 57 58 59 63 63 64 62
10 14 15 17 15 15 14 17 19 19 21 20 21 21 20 17 17 17 17 15 15 14 15 13 13 13 12 8 8 8 10 12 16 16 19 21 21 23 25 21 21 15 8 3 0 0 nan nan nan nan nan nan nan nan nan nan nan nan nan nan nan nan 28 74 79 79 92 96 92 92 85 77 69 69 59 51 51 48 48 51 51 58 62 66 72 72 80 87 94 94 96 98 99 99 89 75 75 62 58 61 61 63 66
7 10 13 14 13 13 12 13 17 17 17 18 17 17 16 15 15 15 14 13 13 12 12 11 11 11 10 8 7 7 8 12 17 17 19 20 20 21 23 19 19 13 7 2 1 1 nan nan nan nan nan nan nan nan nan nan nan nan nan nan nan nan 47 76 84 84 97 102 101 101 95 90 82 82 72 60 60 53 50 53 53 55 58 62 67 67 71 79 84 84 90 95 99 99 99 93 93 81 66 61 61 61 66
5 7 9 11 12 12 10 11 14 14 16 18 16 16 14 13 13 13 12 11 11 10 11 10 10 10 9 7 6 6 7 11 17 17 19 21 21 19 20 18 18 12 5 2 1 1 nan nan nan nan nan nan nan nan nan nan nan nan nan nan nan nan 46 77 83 83 96 104 103 103 100 97 89 89 83 76 76 70 65 61 61 59 60 59 62 62 66 72 77 77 84 89 95 95 98 100 100 96 84 69 69 61 63
4 6 7 9 9 9 9 9 10 10 15 17 15 15 13 11 11 11 9 9 9 9 9 9 8 8 8 6 5 5 6 7 13 13 17 19 19 19 18 15 15 9 4 1 nan nan nan nan nan nan nan nan nan nan nan nan nan nan nan nan nan 10 51 75 85 85 97 103 102 102 98 94 92 92 89 85 85 82 80 76 76 70 64 60 61 61 63 68 73 73 77 83 88 88 96 101 101 103 99 88 88 72 62
1 2 5 9 9 9 8 6 9 9 13 13 12 12 10 9 9 9 8 7 7 6 8 8 7 7 5 3 3 3 4 5 9 9 13 16 16 16 16 13 13 7 3 0 nan nan nan nan nan nan nan nan nan nan nan nan nan nan nan nan nan 17 51 71 83 83 93 97 97 97 95 92 90 90 90 89 89 91 92 89 89 86 75 68 66 66 65 67 71 71 73 76 84 84 90 96 96 101 103 102 102 93 74
0 0 2 6 8 8 6 5 6 6 8 10 9 9 8 7 7 7 6 6 6 5 6 7 5 5 2 1 1 1 2 3 6 6 9 12 12 13 13 10 10 5 1 nan nan nan nan nan nan nan nan nan nan nan nan nan nan nan nan nan nan 12 51 70 82 82 90 94 93 93 92 90 88 88 88 90 90 92 93 94 94 94 87 81 76 76 72 72 70 70 71 73 79 79 81 89 89 98 100 106 106 106 98
0 0 1 3 6 6 4 3 3 3 5 6 6 6 6 5 5 4 5 4 4 4 4 5 3 3 0 0 0 0 0 1 3 3 7 9 9 10 10 7 7 3 0 nan nan nan nan nan nan nan nan nan nan nan nan nan nan nan nan nan nan 29 56 71 84 84 89 90 92 92 89 88 86 86 84 88 88 89 92 94 94 95 92 89 85 85 81 78 76 76 75 75 77 77 77 84 84 90 96 103 103 108 113
0 nan 0 1 2 2 3 2 2 2 3 4 4 4 4 3 3 3 3 2 2 3 3 3 1 1 nan nan nan nan nan 0 1 1 4 7 7 9 8 6 6 1 nan nan nan nan nan nan nan nan nan nan nan nan nan nan nan nan nan nan nan 46 59 73 88 88 93 93 92 92 88 86 84 84 84 87 87 89 88 91 91 92 93 91 91 91 89 88 86 86 83 80 79 79 79 81 81 86 94 102 102 110 117
nan nan nan 0 1 1 2 1 1 1 2 2 3 3 3 2 2 2 2 2 2 2 2 1 0 0 nan nan nan nan nan nan 0 0 2 5 5 8 7 5 5 1 nan nan nan nan nan nan nan nan nan nan nan nan nan nan nan nan nan 8 8 51 67 79 95 95 102 100 94 94 90 88 85 85 85 87 87 88 88 87 87 90 90 91 94 94 95 96 94 94 92 90 89 89 87 85 85 88 92 102 102 111 119
nan nan nan nan 0 0 1 0 0 0 1 1 2 2 2 2 2 1 1 1 1 1 0 0 nan nan nan nan nan nan nan nan nan nan 1 4 4 6 6 4 4 0 nan nan nan nan nan nan nan nan nan nan nan nan nan nan nan nan nan 41 41 61 73 83 99 99 106 104 96 96 93 88 90 90 89 93 93 92 91 89 89 88 89 91 95 95 99 101 102 102 103 100 97 97 96 95 95 95 95 101 101 110 112
nan nan nan nan nan nan 0 0 nan nan nan 0 1 1 1 1 1 1 1 1 1 0 0 nan nan nan nan nan nan nan nan nan nan nan 0 2 2 4 4 2 2 nan nan nan nan nan nan nan nan nan nan nan nan nan nan nan nan nan nan 43 43 62 76 85 102 102 110 104 99 99 93 90 93 93 94 98 98 97 97 94 94 93 93 94 98 98 102 105 108 108 110 107 105 105 104 105 105 103 103 106 106 108 109
nan nan nan nan nan nan nan nan nan nan nan nan 0 0 0 0 0 0 0 0 0 nan nan nan nan nan nan nan nan nan nan nan nan nan nan 0 0 1 2 0 0 nan nan nan nan nan nan nan nan nan nan nan nan nan nan nan nan nan 1 41 41 65 77 90 109 109 115 111 104 104 98 93 98 98 100 101 101 104 99 98 98 98 100 102 103 103 108 110 113 113 114 112 108 108 108 110 110 115 113 108 108 109 111
nan nan nan nan nan nan nan nan nan nan nan nan nan nan nan nan nan nan nan nan nan nan nan nan nan nan nan nan nan nan nan nan nan nan nan nan nan nan 0 nan nan nan nan nan nan nan nan nan nan nan nan nan nan nan nan nan nan nan 13 45 45 66 79 98 118 118 121 118 113 113 107 104 107 107 109 109 109 108 107 106 106 105 109 110 115 115 116 118 120 120 118 119 114 114 113 114 114 120 120 120 120 119 116
nan nan nan nan nan nan nan nan nan nan nan nan nan nan nan nan nan nan nan nan nan nan nan nan nan nan nan nan nan nan nan nan nan nan nan nan nan nan nan nan nan nan nan nan nan nan nan nan nan nan nan nan nan nan nan nan nan nan 14 45 45 70 83 102 126 126 130 129 121 121 116 117 118 118 115 118 118 119 116 118 118 115 119 122 126 126 126 127 127 127 127 129 125 125 123 120 120 119 124 128 128 132 129
nan nan nan nan nan nan nan nan nan nan nan nan nan nan nan nan nan nan nan nan nan nan nan nan nan nan nan nan nan nan nan nan nan nan nan nan nan nan nan nan nan nan nan nan nan nan nan nan nan nan nan nan nan nan nan nan nan nan 18 49 49 71 87 106 127 127 135 138 130 130 127 132 129 129 131 130 130 128 129 130 130 129 133 132 132 132 135 134 134 134 136 139 137 137 131 127 127 124 125 128 128 136 135
nan nan nan nan nan nan nan nan nan nan nan nan nan nan nan nan nan nan nan nan nan nan nan nan nan nan nan nan nan nan nan nan nan nan nan nan nan nan nan nan nan nan nan nan nan nan nan nan nan nan nan nan nan nan nan nan nan nan 17 51 51 76 92 110 129 129 143 139 140 140 138 141 136 136 138 141 141 147 148 147 147 147 145 149 149 149 144 142 142 142 146 152 146 146 140 137 137 135 133 132 132 138 139
nan nan nan nan nan nan nan nan nan nan nan nan nan nan nan nan nan nan nan nan nan nan nan nan nan nan nan nan nan nan nan nan nan nan nan nan nan nan nan nan nan nan nan nan nan nan nan nan nan nan nan nan nan nan nan nan nan 1 17 39 39 65 87 110 138 138 150 154 156 156 154 158 155 155 155 161 161 165 170 173 173 179 179 187 186 186 183 178 174 174 171 165 163 163 163 164 164 163 155 151 151 146 143
nan nan nan nan nan nan nan nan nan nan nan nan nan nan nan nan nan nan nan nan nan nan nan nan nan nan nan nan nan nan nan nan nan nan nan nan nan nan nan nan nan nan nan nan nan nan nan nan nan nan nan nan nan nan nan nan nan 1 13 30 30 54 78 102 138 138 157 164 164 164 164 168 163 163 163 168 168 170 178 185 185 189 197 201 207 207 207 205 194 194 187 178 175 175 176 178 178 177 173 163 163 157 153
nan nan nan nan nan nan nan nan nan nan nan nan nan nan nan nan nan nan nan nan nan nan nan nan nan nan nan nan nan nan nan nan nan nan nan nan nan nan nan nan nan nan nan nan nan nan nan nan nan nan nan nan nan nan nan nan nan 0 10 23 23 44 71 103 144 144 160 170 173 173 177 173 174 174 175 174 174 183 184 194 194 203 212 217 228 228 223 227 219 219 209 199 190 190 189 189 189 188 187 181 181 173 167
nan nan nan nan nan nan nan nan nan nan nan nan nan nan nan nan nan nan nan nan nan nan nan nan nan nan nan nan nan nan nan nan nan nan nan nan nan nan nan nan nan nan nan nan nan nan nan nan nan nan nan nan nan nan nan nan nan 0 7 18 18 36 68 106 143 143 162 177 183 183 189 190 188 188 189 190 190 188 198 206 206 218 225 233 245 245 245 238 232 232 223 215 206 206 201 201 201 200 200 197 197 190 184
nan nan nan nan nan nan nan nan nan nan nan nan nan nan nan nan nan nan nan nan nan nan nan nan nan nan nan nan nan nan nan nan nan nan nan nan nan nan nan nan nan nan nan nan nan nan nan nan nan nan nan nan nan nan nan nan nan 0 4 15 15 34 70 108 141 141 164 177 192 192 203 207 208 208 207 204 204 207 212 217 217 228 243 248 250 250 255 253 248 248 239 230 221 221 215 211 211 206 210 207 207 200 196
nan nan nan nan nan nan nan nan nan nan nan nan nan nan nan nan nan nan nan nan nan nan nan nan nan nan nan nan nan nan nan nan nan nan nan nan nan nan nan nan nan nan nan nan nan nan nan nan nan nan nan nan nan nan nan nan nan nan 3 12 12 30 66 106 136 136 163 181 200 200 211 220 221 221 225 225 225 232 228 231 231 241 249 259 258 258 264 257 251 251 249 242 233 233 227 222 222 220 218 216 216 212 208
nan nan nan nan nan nan nan nan nan nan nan nan nan nan nan nan nan nan nan nan nan nan nan nan nan nan nan nan nan nan nan nan nan nan nan nan nan nan nan nan nan nan nan nan nan nan nan nan nan nan nan nan nan nan nan nan nan nan 2 12 12 30 63 97 121 121 159 185 205 205 215 219 226 226 230 244 244 248 246 253 253 256 262 263 267 267 265 268 262 262 255 253 249 249 241 234 234 228 226 224 224 224 223
nan nan nan nan nan nan nan nan nan nan nan nan nan nan nan nan nan nan nan nan nan nan nan nan nan nan nan nan nan nan nan nan nan nan nan nan nan nan nan nan nan nan nan nan nan nan nan nan nan nan nan nan nan nan nan nan nan nan 1 11 11 28 57 86 104 104 150 177 196 196 210 214 227 227 236 251 251 259 265 272 272 271 272 261 266 266 263 274 265 265 264 256 255 255 257 251 251 246 243 240 240 240 237
nan nan nan nan nan nan nan nan nan nan nan nan nan nan nan nan nan nan nan nan nan nan nan nan nan nan nan nan nan nan nan nan nan nan nan nan nan nan nan nan nan nan nan nan nan nan nan nan nan nan nan nan nan nan nan nan nan nan 1 12 12 27 49 77 96 96 135 169 185 185 196 208 221 221 243 253 253 266 279 285 285 283 275 269 274 274 270 274 278 278 268 262 266 266 265 262 262 259 256 262 262 263 254
nan nan nan nan nan nan nan nan nan nan nan nan nan nan nan nan nan nan nan nan nan nan nan nan nan nan nan nan nan nan nan nan nan nan nan nan nan nan nan nan nan nan nan nan nan nan nan nan nan nan nan nan nan nan nan nan nan nan 1 10 10 23 41 64 87 87 126 153 172 172 183 193 215 215 235 257 257 271 291 298 298 291 283 274 277 277 272 276 280 280 278 270 269 269 275 273 273 271 273 275 275 271 278
nan nan nan nan nan nan nan nan nan nan nan nan nan nan nan nan nan nan nan nan nan nan nan nan nan nan nan nan nan nan nan nan nan nan nan nan nan nan nan nan nan nan nan nan nan nan nan nan nan nan nan nan nan nan nan nan nan nan 1 7 7 19 33 55 81 81 115 141 161 161 176 188 203 203 222 248 248 277 292 298 298 304 298 283 285 285 278 280 281 281 280 271 276 276 279 280 280 290 291 293 293 297 299
nan nan nan nan nan nan nan nan nan nan nan nan nan nan nan nan nan nan nan nan nan nan nan nan nan nan nan nan nan nan nan nan nan nan nan nan nan nan nan nan nan nan nan nan nan nan nan nan nan nan nan nan nan nan nan nan nan nan 0 4 4 13 27 44 71 71 100 124 154 154 171 188 200 200 219 243 243 264 279 293 293 305 302 295 294 294 291 287 293 293 288 276 277 277 282 286 286 296 303 310 310 306 317
nan nan nan nan nan nan nan nan nan nan nan nan nan nan nan nan nan nan nan nan nan nan nan nan nan nan nan nan nan nan nan nan nan nan nan nan nan nan nan nan nan nan nan nan nan nan nan nan nan nan nan nan nan nan nan nan nan nan nan 3 3 10 20 35 58 58 79 110 139 139 164 186 200 200 217 232 232 249 262 284 284 292 301 300 301 301 299 298 296 296 295 291 280 280 282 293 293 300 316 327 327 323 327
nan nan nan nan nan nan nan nan nan nan nan nan nan nan nan nan nan nan nan nan nan nan nan nan nan nan nan nan nan nan nan nan nan nan nan nan nan nan nan nan nan nan nan nan nan nan nan nan nan nan nan nan nan nan nan nan nan nan nan 1 1 7 14 25 38 38 54 83 115 115 147 178 195 195 210 224 224 236 254 276 276 289 299 306 319 319 316 314 312 312 303 296 281 281 282 292 292 304 321 329 329 334 329
nan nan nan nan nan nan nan nan nan nan nan nan nan nan nan nan nan nan nan nan nan nan nan nan nan nan nan nan nan nan nan nan nan nan nan nan nan nan nan nan nan nan nan nan nan nan nan nan nan nan nan nan nan nan nan nan nan nan nan nan nan 2 10 14 18 18 27 52 88 88 129 164 182 182 199 209 209 230 246 268 268 287 305 321 342 342 339 334 324 324 322 302 296 296 293 293 293 303 321 335 335 332 330
nan nan nan nan nan nan nan nan nan nan nan nan nan nan nan nan nan nan nan nan nan nan nan nan nan nan nan nan nan nan nan nan nan nan nan nan nan nan nan nan nan nan nan nan nan nan nan nan nan nan nan nan nan nan nan nan nan nan nan nan nan 0 7 6 7 7 10 26 61 61 105 141 168 168 186 204 204 220 241 261 261 282 308 329 351 351 357 350 340 340 329 317 301 301 301 311 311 316 319 332 332 350 355
nan nan nan nan nan nan nan nan nan nan nan nan nan nan nan nan nan nan nan nan nan nan nan nan nan nan nan nan nan nan nan nan nan nan nan nan nan nan nan nan nan nan nan nan nan nan nan nan nan nan nan nan nan nan nan nan nan nan nan nan nan nan 0 2 1 1 4 11 36 36 75 116 142 142 169 192 192 210 234 249 249 276 305 330 354 354 372 370 355 355 347 327 319 319 321 335 335 342 345 363 363 394 400
nan nan nan nan nan nan nan nan nan nan nan nan nan nan nan nan nan nan nan nan nan nan nan nan nan nan nan nan nan nan nan nan nan nan nan nan nan nan nan nan nan nan nan nan nan nan nan nan nan nan nan nan nan nan nan nan nan nan nan nan nan nan nan nan nan nan 2 8 19 19 50 84 115 115 151 179 179 201 222 237 237 267 298 330 363 363 374 379 372 372 363 342 335 335 352 359 359 368 385 418 418 459 464
nan nan nan nan nan nan nan nan nan nan nan nan nan nan nan nan nan nan nan nan nan nan nan nan nan nan nan nan nan nan nan nan nan nan nan nan nan nan nan nan nan nan nan nan nan nan nan nan nan nan nan nan nan nan nan nan nan nan nan nan nan nan nan nan nan nan 0 9 12 12 24 47 85 85 129 166 166 192 211 232 232 253 285 322 345 345 366 384 382 382 378 369 370 370 379 387 387 405 439 466 466 482 480
nan nan nan nan nan nan nan nan nan nan nan nan nan nan nan nan nan nan nan nan nan nan nan nan nan nan nan nan nan nan nan nan nan nan nan nan nan nan nan nan nan nan nan nan nan nan nan nan nan nan nan nan nan nan nan nan nan nan nan nan nan nan nan nan nan nan nan 0 6 6 8 17 52 52 101 149 149 179 196 215 215 228 254 292 328 328 363 380 398 398 399 400 396 396 418 421 421 438 483 510 510 502 493
nan nan nan nan nan nan nan nan nan nan nan nan nan nan nan nan nan nan nan nan nan nan nan nan nan nan nan nan nan nan nan nan nan nan nan nan nan nan nan nan nan nan nan nan nan nan nan nan nan nan nan nan nan nan nan nan nan nan nan nan nan nan nan nan nan nan nan nan nan nan 3 5 27 27 71 121 121 155 178 194 194 195 214 260 309 309 356 388 416 416 430 424 432 432 445 457 457 478 525 535 535 526 508
nan nan nan nan nan nan nan nan nan nan nan nan nan nan nan nan nan nan nan nan nan nan nan nan nan nan nan nan nan nan nan nan nan nan nan nan nan nan nan nan nan nan nan nan nan nan nan nan nan nan nan nan nan nan nan nan nan nan nan nan nan nan nan nan nan nan nan nan nan nan nan 4 10 10 43 91 91 133 154 160 160 152 173 224 281 281 342 394 433 433 458 458 472 472 485 489 489 519 554 567 567 565 564
nan nan nan nan nan nan nan nan nan nan nan nan nan nan nan nan nan nan nan nan nan nan nan nan nan nan nan nan nan nan nan nan nan nan nan nan nan nan nan nan nan nan nan nan nan nan nan nan nan nan nan nan nan nan nan nan nan nan nan nan nan nan nan nan nan nan nan nan nan nan nan 2 5 5 16 58 58 103 120 121 121 105 121 185 261 261 325 392 439 439 472 486 500 500 510 523 523 548 583 593 593 593 601
nan nan nan nan nan nan nan nan nan nan nan nan nan nan nan nan nan nan nan nan nan nan nan nan nan nan nan nan nan nan nan nan nan nan nan nan nan nan nan nan nan nan nan nan nan nan nan nan nan nan nan nan nan nan nan nan nan nan nan nan nan nan nan nan nan nan nan nan nan nan nan nan 3 3 7 12 12 20 25 21 21 30 68 137 231 231 310 373 431 431 475 512 543 543 566 590 590 619 630 648 648 649 680
nan nan nan nan nan nan nan nan nan nan nan nan nan nan nan nan nan nan nan nan nan nan nan nan nan nan nan nan nan nan nan nan nan nan nan nan nan nan nan nan nan nan nan nan nan nan nan nan nan nan nan nan nan nan nan nan nan nan nan nan nan nan nan nan nan nan nan nan nan nan nan nan nan nan 1 3 3 7 7 10 10 25 59 133 221 221 290 347 402 402 462 512 553 553 595 642 642 666 672 690 690 691 714
nan nan nan nan nan nan nan nan nan nan nan nan nan nan nan nan nan nan nan nan nan nan nan nan nan nan nan nan nan nan nan nan nan nan nan nan nan nan nan nan nan nan nan nan nan nan nan nan nan nan nan nan nan nan nan nan nan nan nan nan nan nan nan nan nan nan nan nan nan nan nan nan nan nan nan nan nan nan nan 9 9 25 54 113 191 191 268 303 369 369 444 512 564 564 624 666 666 708 719 734 734 738 776
nan nan nan nan nan nan nan nan nan nan nan nan nan nan nan nan nan nan nan nan nan nan nan nan nan nan nan nan nan nan nan nan nan nan nan nan nan nan nan nan nan nan nan nan nan nan nan nan nan nan nan nan nan nan nan nan nan nan nan nan nan nan nan nan nan nan nan nan nan nan nan nan nan nan nan nan nan nan nan 7 7 23 43 82 148 148 230 259 322 322 417 504 577 577 644 707 707 748 760 768 768 797 831
nan nan nan nan nan nan nan nan nan nan nan nan nan nan nan nan nan nan nan nan nan nan nan nan nan nan nan nan nan nan nan nan nan nan nan nan nan nan nan nan nan nan nan nan nan nan nan nan nan nan nan nan nan nan nan nan nan nan nan nan nan nan nan nan nan nan nan nan nan nan nan nan nan nan nan nan nan nan nan 0 0 17 33 55 105 105 176 206 269 269 361 468 571 571 653 730 730 787 814 828 828 845 852
nan nan nan nan nan nan nan nan nan nan nan nan nan nan nan nan nan nan nan nan nan nan nan nan nan nan nan nan nan nan nan nan nan nan nan nan nan nan nan nan nan nan nan nan nan nan nan nan nan nan nan nan nan nan nan nan nan nan nan nan nan nan nan nan nan nan nan nan nan nan nan nan nan nan nan nan nan nan nan nan nan 2 20 39 64 64 120 141 204 204 313 444 570 570 668 755 755 819 862 885 885 889 878
nan nan nan nan nan nan nan nan nan nan nan nan nan nan nan nan nan nan nan nan nan nan nan nan nan nan nan nan nan nan nan nan nan nan nan nan nan nan nan nan nan nan nan nan nan nan nan nan nan nan nan nan nan nan nan nan nan nan nan nan nan nan nan nan nan nan nan nan nan nan nan nan nan nan nan nan nan nan nan nan nan nan 2 30 47 47 66 80 147 147 258 406 542 542 684 777 777 835 878 903 903 898 886
nan nan nan nan nan nan nan nan nan nan nan nan nan nan nan nan nan nan nan nan nan nan nan nan nan nan nan nan nan nan nan nan nan nan nan nan nan nan nan nan nan nan nan nan nan nan nan nan nan nan nan nan nan nan nan nan nan nan nan nan nan nan nan nan nan nan nan nan nan nan nan nan nan nan nan nan nan nan nan nan nan nan 0 1 9 9 17 51 118 118 222 364 492 492 636 743 743 828 864 912 912 927 914
nan nan nan nan nan nan nan nan nan nan nan nan nan nan nan nan nan nan nan nan nan nan nan nan nan nan nan nan nan nan nan nan nan nan nan nan nan nan nan nan nan nan nan nan nan nan nan nan nan nan nan nan nan nan nan nan nan nan nan nan nan nan nan nan nan nan nan nan nan nan nan nan nan nan nan nan nan nan nan nan nan nan nan nan nan nan nan 7 99 99 219 328 426 426 539 670 670 781 856 915 915 948 976
nan nan nan nan nan nan nan nan nan nan nan nan nan nan nan nan nan nan nan nan nan nan nan nan nan nan nan nan nan nan nan nan nan nan nan nan nan nan nan nan nan nan nan nan nan nan nan nan nan nan nan nan nan nan nan nan nan nan nan nan nan nan nan nan nan nan nan nan nan nan nan nan nan nan nan nan nan nan nan nan nan nan nan nan 0 0 6 20 58 58 234 326 386 386 448 579 579 713 803 911 911 979 1012
nan nan nan nan nan nan nan nan nan nan nan nan nan nan nan nan nan nan nan nan nan nan nan nan nan nan nan nan nan nan nan nan nan nan nan nan nan nan nan nan nan nan nan nan nan nan nan nan nan nan nan nan nan nan nan nan nan nan nan nan nan nan nan nan nan nan nan nan nan nan nan nan nan nan nan nan nan nan nan nan nan nan nan 1 3 3 4 20 114 114 219 291 360 360 401 500 500 634 749 873 873 981 1028
nan nan nan nan nan nan nan nan nan nan nan nan nan nan nan nan nan nan nan nan nan nan nan nan nan nan nan nan nan nan nan nan nan nan nan nan nan nan nan nan nan nan nan nan nan nan nan nan nan nan nan nan nan nan nan nan nan nan nan nan nan nan nan nan nan nan nan nan nan nan nan nan nan nan nan nan nan nan nan nan nan nan nan 1 0 0 2 12 119 119 160 211 265 265 360 469 469 560 700 839 839 968 1031
nan nan nan nan nan nan nan nan nan nan nan nan nan nan nan nan nan nan nan nan nan nan nan nan nan nan nan nan nan nan nan nan nan nan nan nan nan nan nan nan nan nan nan nan nan nan nan nan nan nan nan nan nan nan nan nan nan nan nan nan nan nan nan nan nan nan nan nan nan nan nan nan nan nan nan nan nan nan nan nan nan nan nan 0 3 3 10 37 61 61 55 92 219 219 291 502 502 550 668 831 831 960 1035
nan nan nan nan nan nan nan nan nan nan nan nan nan nan nan nan nan nan nan nan nan nan nan nan nan nan nan nan nan nan nan nan nan nan nan nan nan nan nan nan nan nan nan nan nan nan nan nan nan nan nan nan nan nan nan nan nan nan nan nan nan nan nan nan nan nan nan nan nan nan nan nan nan nan nan nan nan nan nan nan nan nan 0 1 6 6 5 10 5 5 16 28 148 148 252 461 461 565 672 810 810 942 1049
nan nan nan nan nan nan nan nan nan nan nan nan nan nan nan nan nan nan nan nan nan nan nan nan nan nan nan nan nan nan nan nan nan nan nan nan nan nan nan nan nan nan nan nan nan nan nan nan nan nan nan nan nan nan nan nan nan nan nan nan nan nan nan nan nan nan nan nan nan nan nan nan nan nan nan nan nan nan nan nan nan nan nan 0 1 1 0 2 7 7 16 32 30 30 225 398 398 558 692 793 793 956 1075
nan nan nan nan nan nan nan nan nan nan nan nan nan nan nan nan nan nan nan nan nan nan nan nan nan nan nan nan nan nan nan nan nan nan nan nan nan nan nan nan nan nan nan nan nan nan nan nan nan nan nan nan nan nan nan nan nan nan nan nan nan nan nan nan nan nan nan nan nan nan nan nan nan nan nan nan nan nan nan nan nan nan nan nan nan nan 0 3 26 26 24 46 59 59 251 368 368 516 663 786 786 935 1082
nan nan nan nan nan nan nan nan nan nan nan nan nan nan nan nan nan nan nan nan nan nan nan nan nan nan nan nan nan nan nan nan nan nan nan nan nan nan nan nan nan nan 1 1 nan nan nan nan nan nan nan nan nan nan nan nan nan nan nan nan nan nan nan nan nan nan nan nan nan nan nan nan nan nan nan nan nan nan nan nan nan nan nan nan nan nan 2 31 46 46 90 162 186 186 210 281 281 438 633 783 783 954 1069
nan nan nan nan nan nan nan nan nan nan nan nan nan nan nan nan nan nan nan nan nan nan nan nan nan nan nan nan nan nan nan nan nan nan nan nan nan nan nan nan nan nan nan 0 2 2 5 1 nan nan nan nan nan nan nan nan nan nan nan nan nan nan nan nan nan nan nan nan nan nan nan nan nan nan nan nan nan nan nan nan nan nan nan nan 0 0 5 13 30 30 63 140 134 134 110 223 223 415 612 791 791 951 1096
nan nan nan nan nan nan nan nan nan nan nan nan nan nan nan nan nan nan nan nan nan nan nan nan nan nan nan nan nan nan nan nan nan nan nan nan nan nan nan nan nan nan nan nan nan nan 0 1 1 1 nan nan nan nan nan nan nan nan nan nan nan nan nan nan nan nan nan nan nan nan nan nan nan nan nan nan nan nan nan nan nan nan nan nan 0 0 4 7 15 15 24 23 59 59 77 192 192 386 586 758 758 927 1039